This is the latest recevied weather packets stored in our database for station/object N9BLE. If no packets are shown the sender has not sent any weather packets the latest 10 day(s).
| Time | Temp. | Humidity | Pressure | Rain* | Wind** | Luminosity | Snow |
|---|---|---|---|---|---|---|---|
| 1777972976 | 10° C | 55% | 1010 hPa | 0 mm | - | 0 W/m² | - |
| 1777972673 | 10.56° C | 55% | 1010.1 hPa | 0 mm | - | 0 W/m² | - |
| 1777972371 | 10.56° C | 54% | 1009.9 hPa | 0 mm | - | 0 W/m² | - |
| 1777972068 | 10.56° C | 52% | 1010.2 hPa | 0 mm | - | 0 W/m² | - |
| 1777971766 | 10.56° C | 53% | 1010 hPa | 0 mm | - | 0 W/m² | - |
| 1777971464 | 10.56° C | 52% | 1010.2 hPa | 0 mm | - | 0 W/m² | - |
| 1777971162 | 10.56° C | 52% | 1009.7 hPa | 0 mm | - | 0 W/m² | - |
| 1777970858 | 11.11° C | 51% | 1009.5 hPa | 0 mm | - | 0 W/m² | - |
| 1777970558 | 11.11° C | 51% | 1009.4 hPa | 0 mm | - | 0 W/m² | - |
| 1777970254 | 11.11° C | 53% | 1009.4 hPa | 0 mm | - | 0 W/m² | - |
| 1777969951 | 11.11° C | 55% | 1009.2 hPa | 0 mm | - | 0 W/m² | - |
| 1777969647 | 10.56° C | 58% | 1008.9 hPa | 0 mm | - | 0 W/m² | - |
| 1777969344 | 10.56° C | 58% | 1008.7 hPa | 0 mm | - | 0 W/m² | - |
| 1777969040 | 10.56° C | 59% | 1008.5 hPa | 0 mm | - | 0 W/m² | - |
| 1777968737 | 10.56° C | 59% | 1008.6 hPa | 0 mm | - | 0 W/m² | - |
| 1777968435 | 10.56° C | 58% | 1008.5 hPa | 0 mm | - | 0 W/m² | - |
| 1777968130 | 10.56° C | 59% | 1008.1 hPa | 0 mm | - | 0 W/m² | - |
| 1777967826 | 10.56° C | 59% | 1007.9 hPa | 0 mm | - | 0 W/m² | - |
| 1777967523 | 10.56° C | 60% | 1007.9 hPa | 0 mm | - | 0 W/m² | - |
| 1777967220 | 10.56° C | 59% | 1007.8 hPa | 0 mm | - | 0 W/m² | - |
| 1777966917 | 10.56° C | 58% | 1007.6 hPa | 0 mm | - | 0 W/m² | - |
| 1777966615 | 10.56° C | 58% | 1007.6 hPa | 0 mm | - | 0 W/m² | - |
| 1777966319 | 10.56° C | 58% | 1007.6 hPa | 0 mm | - | 0 W/m² | - |
| 1777966008 | 10.56° C | 58% | 1007.5 hPa | 0 mm | - | 0 W/m² | - |
| 1777965705 | 10.56° C | 59% | 1007.9 hPa | 0 mm | - | 0 W/m² | - |
* Rain latest hour (hover to see other rain measurements)
** Current wind speed in m/s (hover to see current wind gust speed)